Weather History for Brookhaven, MS

Change the Weather History Date:

Saturday, March 8, 2014

  Actual Average (KMCB) Record (KMCB)
Temperature  
Mean Temperature 55 °F -  
Max Temperature 69 °F 69 °F 82 °F (1974)
Min Temperature 41 °F 43 °F 26 °F (1965)
Degree Days  
Heating Degree Days 10    
Growing Degree Days 5 (Base 50)    
Moisture  
Dew Point 48 °F    
Average Humidity 83    
Maximum Humidity 100    
Minimum Humidity 46    
Precipitation  
Precipitation 0.00 in - - ()
Sea Level Pressure  
Sea Level Pressure 30.14 in    
Wind  
Wind Speed 1 mph (South)    
Max Wind Speed 10 mph    
Max Gust Speed -    
Visibility 8 miles    
Events Fog    
Averages and records for this station are not official NWS values.
T = Trace of Precipitation, MM = Missing Value Source: NWS Daily Summary

Daily Weather History Graph

Daily Weather History Graph

Search for Another Location

Airport:

Trip Planner

Search our weather history database for the weather conditions in past years. The results will help you decide how hot, cold, wet, or windy it might be!

Date:

Astronomy

Mar. 08, 2014 Rise Set
Actual Time 6:20 AM CST 6:04 PM CST
Civil Twilight 5:56 AM CST 6:29 PM CST
Nautical Twilight 5:27 AM CST 6:57 PM CST
Astronomical Twilight 4:59 AM CST 7:25 PM CST
Moon 11:24 AM CST (3/8) 12:40 AM CST (3/8)
Length of Visible Light 12h 33m
Length of Day
11h 44m
First Quarter, 52% of the Moon is Illuminated
Mar 8
First Quarter
Mar 16
Full
Mar 23
Last Quarter
Mar 30
New
Apr 7
First Quarter

Hourly Weather History & Observations

Time (CST) Temp. Windchill Dew Point Humidity Pressure Visibility Wind Dir Wind Speed Gust Speed Precip Events Conditions
12:35 AM 42.8 °F - 42.8 °F 100% 30.06 in 8.0 mi Calm Calm - N/A   Clear
12:55 AM 41.0 °F - 41.0 °F 100% 30.06 in 3.0 mi Calm Calm - N/A   Clear
1:15 AM 42.8 °F - 42.8 °F 100% 30.06 in 6.0 mi Calm Calm - N/A   Clear
1:35 AM 42.8 °F - 42.8 °F 100% 30.06 in 4.0 mi Calm Calm - N/A   Clear
1:55 AM 42.8 °F - 42.8 °F 100% 30.06 in 7.0 mi Calm Calm - N/A   Clear
2:15 AM 42.8 °F - 42.8 °F 100% 30.06 in 6.0 mi Calm Calm - N/A   Clear
2:35 AM 42.8 °F - 42.8 °F 100% 30.07 in 8.0 mi Calm Calm - N/A   Clear
2:55 AM 41.0 °F - 41.0 °F 100% 30.07 in 1.8 mi Calm Calm - N/A   Clear
3:15 AM 41.0 °F - 41.0 °F 100% 30.07 in 7.0 mi Calm Calm - N/A   Clear
3:35 AM 41.0 °F - 41.0 °F 100% 30.08 in 5.0 mi Calm Calm - N/A   Clear
3:55 AM 42.8 °F 40.1 °F 42.8 °F 100% 30.08 in 6.0 mi South 4.6 mph - N/A   Clear
4:15 AM 42.8 °F 41.1 °F 42.8 °F 100% 30.09 in 5.0 mi South 3.5 mph - N/A   Clear
4:35 AM 44.6 °F - 44.6 °F 100% 30.09 in 5.0 mi Calm Calm - N/A   Clear
4:55 AM 44.6 °F 43.1 °F 44.6 °F 100% 30.10 in 5.0 mi South 3.5 mph - N/A   Clear
5:15 AM 44.6 °F - 44.6 °F 100% 30.11 in 4.0 mi Calm Calm - N/A   Clear
5:35 AM 44.6 °F - 44.6 °F 100% 30.12 in 4.0 mi Calm Calm - N/A   Clear
5:55 AM 42.8 °F - 42.8 °F 100% 30.12 in 0.5 mi Calm Calm - N/A Fog Fog
6:15 AM 42.8 °F - 42.8 °F 100% 30.14 in 0.8 mi Calm Calm - N/A   Mist
6:35 AM 41.0 °F - 41.0 °F 100% 30.14 in 0.5 mi Calm Calm - N/A Fog Fog
6:55 AM 41.0 °F - 41.0 °F 100% 30.14 in 0.8 mi Calm Calm - N/A   Mist
7:15 AM 42.8 °F - 42.8 °F 100% 30.15 in 1.5 mi Calm Calm - N/A   Clear
7:35 AM 44.6 °F - 44.6 °F 100% 30.16 in 1.2 mi Calm Calm - N/A   Clear
7:55 AM 46.4 °F - 46.4 °F 100% 30.17 in 2.0 mi Calm Calm - N/A   Clear
8:15 AM 46.4 °F - 46.4 °F 100% 30.18 in 2.5 mi Calm Calm - N/A   Mostly Cloudy
8:35 AM 48.2 °F - 48.2 °F 100% 30.19 in 3.0 mi Calm Calm - N/A   Mostly Cloudy
8:55 AM 50.0 °F - 48.2 °F 94% 30.19 in 3.0 mi Calm Calm - N/A   Overcast
9:15 AM 51.8 °F - 48.2 °F 88% 30.19 in 5.0 mi SSE 4.6 mph - N/A   Overcast
9:35 AM 53.6 °F - 48.2 °F 82% 30.20 in 9.0 mi South 9.2 mph - N/A   Overcast
9:55 AM 53.6 °F - 48.2 °F 82% 30.21 in 10.0 mi South 8.1 mph - N/A   Overcast
10:15 AM 55.4 °F - 48.2 °F 77% 30.21 in 10.0 mi South 10.4 mph - N/A   Mostly Cloudy
10:35 AM 55.4 °F - 48.2 °F 77% 30.20 in 9.0 mi SSW 5.8 mph - N/A   Partly Cloudy
10:55 AM 57.2 °F - 50.0 °F 77% 30.21 in 10.0 mi Calm Calm - N/A   Clear
11:15 AM 57.2 °F - 48.2 °F 72% 30.20 in 10.0 mi Calm Calm - N/A   Clear
11:35 AM 60.8 °F - 48.2 °F 63% 30.20 in 10.0 mi Calm Calm - N/A   Clear
11:55 AM 60.8 °F - 48.2 °F 63% 30.19 in 10.0 mi South 6.9 mph - N/A   Clear
12:15 PM 62.6 °F - 48.2 °F 59% 30.18 in 10.0 mi SE 4.6 mph - N/A   Clear
12:35 PM 64.4 °F - 48.2 °F 56% 30.17 in 10.0 mi South 6.9 mph - N/A   Clear
12:55 PM 64.4 °F - 48.2 °F 56% 30.15 in 10.0 mi South 6.9 mph - N/A   Clear
1:15 PM 66.2 °F - 48.2 °F 52% 30.14 in 10.0 mi Calm Calm - N/A   Clear
1:35 PM 64.4 °F - 46.4 °F 52% 30.13 in 10.0 mi Calm Calm - N/A   Clear
1:55 PM 68.0 °F - 46.4 °F 46% 30.12 in 10.0 mi SSE 5.8 mph - N/A   Clear
2:15 PM 66.2 °F - 48.2 °F 52% 30.11 in 10.0 mi Calm Calm - N/A   Clear
2:35 PM 66.2 °F - 46.4 °F 49% 30.10 in 10.0 mi Calm Calm - N/A   Clear
2:55 PM 68.0 °F - 48.2 °F 49% 30.10 in 10.0 mi Calm Calm - N/A   Clear
3:15 PM 69.8 °F - 48.2 °F 46% 30.10 in 10.0 mi SSE 5.8 mph - N/A   Clear
3:35 PM 68.0 °F - 48.2 °F 49% 30.10 in 10.0 mi Calm Calm - N/A   Clear
3:55 PM 69.8 °F - 48.2 °F 46% 30.09 in 10.0 mi SSE 4.6 mph - N/A   Partly Cloudy
4:15 PM 68.0 °F - 48.2 °F 49% 30.09 in 10.0 mi Calm Calm - N/A   Partly Cloudy
4:35 PM 68.0 °F - 48.2 °F 49% 30.10 in 10.0 mi Calm Calm - N/A   Clear
4:55 PM 66.2 °F - 48.2 °F 52% 30.09 in 10.0 mi Calm Calm - N/A   Clear
5:15 PM 66.2 °F - 48.2 °F 52% 30.10 in 10.0 mi Calm Calm - N/A   Clear
5:35 PM 64.4 °F - 51.8 °F 64% 30.10 in 10.0 mi Calm Calm - N/A   Partly Cloudy
5:55 PM 60.8 °F - 53.6 °F 77% 30.11 in 10.0 mi Calm Calm - N/A   Mostly Cloudy
6:15 PM 60.8 °F - 53.6 °F 77% 30.13 in 10.0 mi Calm Calm - N/A   Overcast
6:35 PM 60.8 °F - 53.6 °F 77% 30.13 in 10.0 mi Calm Calm - N/A   Overcast
6:55 PM 59.0 °F - 53.6 °F 82% 30.13 in 10.0 mi Calm Calm - N/A   Overcast
7:15 PM 59.0 °F - 53.6 °F 82% 30.14 in 10.0 mi Calm Calm - N/A   Mostly Cloudy
7:35 PM 57.2 °F - 53.6 °F 88% 30.15 in 10.0 mi Calm Calm - N/A   Mostly Cloudy
7:55 PM 57.2 °F - 53.6 °F 88% 30.16 in 10.0 mi Calm Calm - N/A   Mostly Cloudy
8:15 PM 57.2 °F - 53.6 °F 88% 30.16 in 10.0 mi Calm Calm - N/A   Mostly Cloudy
8:35 PM 55.4 °F - 53.6 °F 94% 30.17 in 10.0 mi Calm Calm - N/A   Mostly Cloudy
8:55 PM 55.4 °F - 53.6 °F 94% 30.17 in 10.0 mi Calm Calm - N/A   Mostly Cloudy
9:15 PM 55.4 °F - 53.6 °F 94% 30.18 in 10.0 mi Calm Calm - N/A   Mostly Cloudy
9:35 PM 55.4 °F - 53.6 °F 94% 30.18 in 10.0 mi Calm Calm - N/A   Overcast
9:55 PM 55.4 °F - 53.6 °F 94% 30.18 in 10.0 mi Calm Calm - N/A   Mostly Cloudy
10:15 PM 53.6 °F - 51.8 °F 94% 30.18 in 7.0 mi Calm Calm - N/A   Scattered Clouds
10:35 PM 53.6 °F - 51.8 °F 94% 30.19 in 10.0 mi Calm Calm - N/A   Clear
10:55 PM 53.6 °F - 51.8 °F 94% 30.18 in 10.0 mi Calm Calm - N/A   Clear
11:15 PM 53.6 °F - 51.8 °F 94% 30.19 in 10.0 mi Calm Calm - N/A   Mostly Cloudy
11:35 PM 51.8 °F - 51.8 °F 100% 30.19 in 10.0 mi Calm Calm - N/A   Mostly Cloudy
11:55 PM 51.8 °F - 51.8 °F 100% 30.19 in 9.0 mi Calm Calm - N/A   Partly Cloudy